Time,TemperatureF,DewpointF,PressureIn,WindDirection,WindDirectionDegrees,WindSpeedMPH,WindSpeedGustMPH,Humidity,HourlyPrecipIn,Conditions,Clouds,dailyrainin,SoftwareType,DateUTC
2013-09-14 00:01:00,56.3,52.5,29.23,SW,225,0.0,0.9,87,0.00,,---,0.00,VWS V14.01,2013-09-14 04:01:00,
2013-09-14 00:02:00,56.3,52.5,29.23,SW,225,0.0,0.0,87,0.00,,---,0.00,VWS V14.01,2013-09-14 04:02:00,
2013-09-14 00:04:00,56.3,52.8,29.23,West,270,1.3,2.9,88,0.00,,---,0.00,VWS V14.01,2013-09-14 04:04:00,
2013-09-14 00:05:00,56.5,53.0,29.23,NNW,338,2.5,2.5,88,0.00,,---,0.00,VWS V14.01,2013-09-14 04:05:00,
2013-09-14 00:06:00,56.5,53.0,29.23,West,270,0.0,2.5,88,0.00,,---,0.00,VWS V14.01,2013-09-14 04:06:00,
2013-09-14 00:11:00,56.8,53.0,29.23,SW,225,0.0,2.9,87,0.00,,---,0.00,VWS V14.01,2013-09-14 04:11:00,
2013-09-14 00:17:00,57.0,52.9,29.23,WSW,248,1.3,2.7,86,0.00,,---,0.00,VWS V14.01,2013-09-14 04:17:00,
2013-09-14 00:22:00,57.0,53.2,29.23,SW,225,1.3,2.5,87,0.00,,---,0.00,VWS V14.01,2013-09-14 04:22:00,
2013-09-14 00:28:00,56.8,53.0,29.23,WSW,248,0.9,2.2,87,0.00,,---,0.00,VWS V14.01,2013-09-14 04:28:00,
2013-09-14 00:33:00,56.8,53.0,29.23,SW,225,1.6,2.5,87,0.00,,---,0.00,VWS V14.01,2013-09-14 04:33:00,
2013-09-14 00:39:00,56.7,53.2,29.23,SW,225,0.0,0.0,88,0.00,,---,0.00,VWS V14.01,2013-09-14 04:39:00,
2013-09-14 00:44:00,56.7,53.2,29.23,NNE,22,1.6,2.5,88,0.00,,---,0.00,VWS V14.01,2013-09-14 04:44:00,
2013-09-14 00:49:00,56.8,53.3,29.20,West,270,1.1,1.3,88,0.00,,---,0.00,VWS V14.01,2013-09-14 04:49:00,
2013-09-14 00:55:00,56.7,53.5,29.20,SW,225,0.9,0.9,89,0.00,,---,0.00,VWS V14.01,2013-09-14 04:55:00,
2013-09-14 01:00:00,56.7,53.5,29.20,SW,225,0.0,0.0,89,0.00,,---,0.00,VWS V14.01,2013-09-14 05:00:00,
2013-09-14 01:05:00,56.7,53.5,29.23,WSW,248,0.0,0.9,89,0.00,,---,0.00,VWS V14.01,2013-09-14 05:05:00,
2013-09-14 01:10:00,56.7,53.8,29.23,WSW,248,0.0,0.0,90,0.00,,---,0.00,VWS V14.01,2013-09-14 05:10:00,
2013-09-14 01:16:00,56.7,53.8,29.23,SW,225,0.0,0.0,90,0.00,,---,0.00,VWS V14.01,2013-09-14 05:16:00,
2013-09-14 01:21:00,56.8,54.2,29.23,SW,225,1.3,1.3,91,0.00,,---,0.00,VWS V14.01,2013-09-14 05:21:00,
2013-09-14 01:27:00,56.8,54.2,29.23,SW,225,0.0,2.0,91,0.00,,---,0.00,VWS V14.01,2013-09-14 05:27:00,
2013-09-14 01:32:00,56.8,54.2,29.23,SW,225,0.0,0.0,91,0.00,,---,0.00,VWS V14.01,2013-09-14 05:32:00,
2013-09-14 01:38:00,56.7,54.1,29.23,SW,225,0.9,1.3,91,0.00,,---,0.00,VWS V14.01,2013-09-14 05:38:00,
2013-09-14 01:43:00,56.7,54.1,29.23,SW,225,0.0,0.0,91,0.00,,---,0.00,VWS V14.01,2013-09-14 05:43:00,
2013-09-14 01:49:00,56.7,54.1,29.23,SSW,202,0.0,1.6,91,0.00,,---,0.00,VWS V14.01,2013-09-14 05:49:00,
2013-09-14 01:55:00,56.7,54.1,29.23,SW,225,0.0,0.0,91,0.00,,---,0.00,VWS V14.01,2013-09-14 05:55:00,
2013-09-14 02:00:00,56.7,54.1,29.23,WSW,248,0.0,2.2,91,0.00,,---,0.00,VWS V14.01,2013-09-14 06:00:00,
2013-09-14 02:05:00,56.7,54.1,29.23,WSW,248,0.0,0.0,91,0.00,,---,0.00,VWS V14.01,2013-09-14 06:05:00,
2013-09-14 02:11:00,56.7,54.1,29.23,WSW,248,0.0,1.1,91,0.00,,---,0.00,VWS V14.01,2013-09-14 06:11:00,
2013-09-14 02:17:00,56.7,54.1,29.23,WSW,248,0.0,1.3,91,0.00,,---,0.00,VWS V14.01,2013-09-14 06:17:00,
2013-09-14 02:22:00,56.5,53.9,29.23,SW,225,0.0,0.0,91,0.00,,---,0.00,VWS V14.01,2013-09-14 06:22:00,
2013-09-14 02:28:00,56.7,54.4,29.23,WSW,248,0.0,1.3,92,0.00,,---,0.00,VWS V14.01,2013-09-14 06:28:00,
2013-09-14 02:34:00,56.5,54.2,29.23,SW,225,0.0,0.0,92,0.00,,---,0.00,VWS V14.01,2013-09-14 06:34:00,
2013-09-14 02:39:00,56.5,54.2,29.23,SW,225,1.1,1.3,92,0.00,,---,0.00,VWS V14.01,2013-09-14 06:39:00,
2013-09-14 02:45:00,56.5,54.2,29.23,SW,225,0.0,1.1,92,0.00,,---,0.00,VWS V14.01,2013-09-14 06:45:00,
2013-09-14 02:50:00,56.5,54.2,29.23,SW,225,0.0,0.0,92,0.00,,---,0.00,VWS V14.01,2013-09-14 06:50:00,
2013-09-14 02:56:00,56.5,54.2,29.23,SW,225,1.1,1.3,92,0.00,,---,0.00,VWS V14.01,2013-09-14 06:56:00,
2013-09-14 03:02:00,56.5,54.2,29.23,WSW,248,0.0,0.0,92,0.00,,---,0.00,VWS V14.01,2013-09-14 07:02:00,
2013-09-14 03:07:00,56.7,54.4,29.23,West,270,1.1,2.2,92,0.00,,---,0.00,VWS V14.01,2013-09-14 07:07:00,
2013-09-14 03:12:00,56.7,54.4,29.23,WSW,248,0.0,0.0,92,0.00,,---,0.00,VWS V14.01,2013-09-14 07:12:00,
2013-09-14 03:18:00,56.5,54.2,29.23,WSW,248,0.0,0.0,92,0.00,,---,0.00,VWS V14.01,2013-09-14 07:18:00,
2013-09-14 03:23:00,56.3,54.0,29.23,WSW,248,0.0,0.0,92,0.00,,---,0.00,VWS V14.01,2013-09-14 07:23:00,
2013-09-14 03:29:00,56.3,54.0,29.23,WSW,248,0.0,0.0,92,0.00,,---,0.00,VWS V14.01,2013-09-14 07:29:00,
2013-09-14 03:34:00,56.3,54.3,29.26,WSW,248,0.0,0.0,93,0.00,,---,0.00,VWS V14.01,2013-09-14 07:34:00,
2013-09-14 03:40:00,56.3,54.3,29.26,West,270,0.0,0.0,93,0.00,,---,0.00,VWS V14.01,2013-09-14 07:40:00,
2013-09-14 03:45:00,56.1,54.1,29.26,WSW,248,0.0,0.0,93,0.00,,---,0.00,VWS V14.01,2013-09-14 07:45:00,
2013-09-14 03:51:00,56.1,54.1,29.23,WSW,248,0.0,0.0,93,0.00,,---,0.00,VWS V14.01,2013-09-14 07:51:00,
2013-09-14 03:57:00,56.1,54.1,29.23,WSW,248,1.1,3.1,93,0.00,,---,0.00,VWS V14.01,2013-09-14 07:57:00,
2013-09-14 04:02:00,56.7,54.7,29.23,WNW,292,0.9,2.5,93,0.00,,---,0.00,VWS V14.01,2013-09-14 08:02:00,
2013-09-14 04:08:00,56.8,54.2,29.26,SSW,202,3.1,3.1,91,0.00,,---,0.00,VWS V14.01,2013-09-14 08:08:00,
2013-09-14 04:13:00,57.0,54.4,29.26,SW,225,2.2,2.2,91,0.00,,---,0.00,VWS V14.01,2013-09-14 08:13:00,
2013-09-14 04:19:00,57.0,54.1,29.26,SW,225,0.0,0.0,90,0.00,,---,0.00,VWS V14.01,2013-09-14 08:19:00,
2013-09-14 04:24:00,56.8,53.9,29.26,SSW,202,0.0,0.0,90,0.00,,---,0.00,VWS V14.01,2013-09-14 08:24:00,
2013-09-14 04:30:00,56.8,53.9,29.26,WSW,248,0.9,1.3,90,0.00,,---,0.00,VWS V14.01,2013-09-14 08:30:00,
2013-09-14 04:36:00,56.8,53.9,29.26,SW,225,0.0,1.3,90,0.00,,---,0.00,VWS V14.01,2013-09-14 08:36:00,
2013-09-14 04:41:00,56.8,53.9,29.26,SSW,202,1.6,1.6,90,0.00,,---,0.00,VWS V14.01,2013-09-14 08:41:00,
2013-09-14 04:46:00,56.8,53.9,29.26,SSW,202,2.0,2.0,90,0.00,,---,0.00,VWS V14.01,2013-09-14 08:46:00,
2013-09-14 04:51:00,56.8,53.9,29.26,WSW,248,0.0,0.0,90,0.00,,---,0.00,VWS V14.01,2013-09-14 08:51:00,
2013-09-14 04:57:00,56.7,54.1,29.26,SW,225,0.0,0.0,91,0.04,,---,0.04,VWS V14.01,2013-09-14 08:57:00,
2013-09-14 05:02:00,56.5,53.9,29.26,SSE,158,0.0,0.0,91,0.04,,---,0.04,VWS V14.01,2013-09-14 09:02:00,
2013-09-14 05:08:00,56.3,53.7,29.26,NW,315,1.1,1.1,91,0.04,,---,0.04,VWS V14.01,2013-09-14 09:08:00,
2013-09-14 05:14:00,56.3,54.0,29.26,WSW,248,0.0,0.0,92,0.04,,---,0.04,VWS V14.01,2013-09-14 09:14:00,
2013-09-14 05:19:00,56.3,54.0,29.26,SSW,202,0.0,0.0,92,0.04,,---,0.04,VWS V14.01,2013-09-14 09:19:00,
2013-09-14 05:25:00,56.3,54.0,29.26,NNW,338,0.0,0.0,92,0.04,,---,0.04,VWS V14.01,2013-09-14 09:25:00,
2013-09-14 05:31:00,56.1,54.1,29.26,SSW,202,0.0,1.3,93,0.04,,---,0.04,VWS V14.01,2013-09-14 09:31:00,
2013-09-14 05:37:00,56.1,53.8,29.26,WSW,248,2.5,2.5,92,0.04,,---,0.04,VWS V14.01,2013-09-14 09:37:00,
2013-09-14 05:42:00,56.1,53.5,29.26,SSW,202,2.0,2.9,91,0.04,,---,0.04,VWS V14.01,2013-09-14 09:42:00,
2013-09-14 05:47:00,56.1,53.2,29.26,SSE,158,2.5,2.5,90,0.04,,---,0.04,VWS V14.01,2013-09-14 09:47:00,
2013-09-14 05:52:00,56.1,53.2,29.29,SSW,202,2.0,2.0,90,0.04,,---,0.04,VWS V14.01,2013-09-14 09:52:00,
2013-09-14 05:57:00,56.1,53.2,29.29,SSW,202,2.0,2.2,90,0.00,,---,0.04,VWS V14.01,2013-09-14 09:57:00,
2013-09-14 06:02:00,56.1,53.2,29.29,SW,225,0.0,0.0,90,0.00,,---,0.04,VWS V14.01,2013-09-14 10:02:00,
2013-09-14 06:08:00,55.9,53.4,29.29,SW,225,0.0,0.0,91,0.00,,---,0.04,VWS V14.01,2013-09-14 10:08:00,
2013-09-14 06:13:00,56.1,52.9,29.29,East,90,2.2,3.4,89,0.00,,---,0.04,VWS V14.01,2013-09-14 10:13:00,
2013-09-14 06:18:00,55.9,53.0,29.29,SW,225,0.0,0.0,90,0.00,,---,0.04,VWS V14.01,2013-09-14 10:18:00,
2013-09-14 06:23:00,55.9,53.0,29.29,SSW,202,0.0,0.0,90,0.00,,---,0.04,VWS V14.01,2013-09-14 10:23:00,
2013-09-14 06:30:00,55.9,53.0,29.29,SSW,202,0.0,0.9,90,0.00,,---,0.04,VWS V14.01,2013-09-14 10:30:00,
2013-09-14 06:36:00,55.8,52.9,29.29,ENE,68,0.0,0.0,90,0.00,,---,0.04,VWS V14.01,2013-09-14 10:36:00,
2013-09-14 06:42:00,55.6,52.7,29.29,WSW,248,0.0,0.0,90,0.00,,---,0.04,VWS V14.01,2013-09-14 10:42:00,
2013-09-14 06:47:00,55.6,52.7,29.29,SW,225,1.6,2.0,90,0.00,,---,0.04,VWS V14.01,2013-09-14 10:47:00,
2013-09-14 06:53:00,55.4,52.5,29.29,SW,225,1.3,3.4,90,0.00,,---,0.04,VWS V14.01,2013-09-14 10:53:00,
2013-09-14 06:59:00,55.4,52.5,29.29,SSW,202,0.0,2.2,90,0.00,,---,0.04,VWS V14.01,2013-09-14 10:59:00,
2013-09-14 07:04:00,55.4,52.5,29.29,South,180,0.0,0.0,90,0.00,,---,0.04,VWS V14.01,2013-09-14 11:04:00,
2013-09-14 07:10:00,55.4,52.5,29.29,WNW,292,1.6,2.2,90,0.00,,---,0.04,VWS V14.01,2013-09-14 11:10:00,
2013-09-14 07:15:00,55.2,52.3,29.29,SSE,158,1.3,2.7,90,0.00,,---,0.04,VWS V14.01,2013-09-14 11:15:00,
2013-09-14 07:21:00,55.2,52.6,29.29,SSW,202,1.6,2.5,91,0.00,,---,0.04,VWS V14.01,2013-09-14 11:21:00,
2013-09-14 07:26:00,55.2,52.6,29.29,SW,225,1.1,2.5,91,0.00,,---,0.04,VWS V14.01,2013-09-14 11:26:00,
2013-09-14 07:32:00,55.2,52.6,29.29,South,180,1.3,1.6,91,0.00,,---,0.04,VWS V14.01,2013-09-14 11:32:00,
2013-09-14 07:38:00,55.0,52.5,29.32,NNW,338,0.0,2.7,91,0.00,,---,0.04,VWS V14.01,2013-09-14 11:38:00,
2013-09-14 07:43:00,55.0,52.5,29.32,SW,225,1.6,2.7,91,0.04,,---,0.08,VWS V14.01,2013-09-14 11:43:00,
2013-09-14 07:48:00,54.9,52.0,29.32,WNW,292,1.6,2.7,90,0.04,,---,0.08,VWS V14.01,2013-09-14 11:48:00,
2013-09-14 08:15:00,54.7,51.8,29.32,WNW,292,0.0,2.2,90,0.08,,---,0.12,VWS V14.01,2013-09-14 12:15:00,
2013-09-14 08:20:00,54.5,51.6,29.32,NE,45,0.0,0.0,90,0.12,,---,0.16,VWS V14.01,2013-09-14 12:20:00,
2013-09-14 08:25:00,54.5,51.9,29.32,SSW,202,0.9,1.3,91,0.12,,---,0.16,VWS V14.01,2013-09-14 12:25:00,
2013-09-14 08:31:00,54.5,51.9,29.32,SSW,202,1.1,1.1,91,0.12,,---,0.16,VWS V14.01,2013-09-14 12:31:00,
2013-09-14 08:37:00,54.7,52.4,29.32,SW,225,0.0,0.0,92,0.12,,---,0.16,VWS V14.01,2013-09-14 12:37:00,
2013-09-14 08:42:00,55.0,53.1,29.32,SW,225,0.0,0.0,93,0.13,,---,0.21,VWS V14.01,2013-09-14 12:42:00,
2013-09-14 08:48:00,55.4,53.4,29.32,SW,225,0.0,0.0,93,0.13,,---,0.21,VWS V14.01,2013-09-14 12:48:00,
2013-09-14 08:53:00,55.8,53.8,29.32,SW,225,0.0,0.0,93,0.09,,---,0.21,VWS V14.01,2013-09-14 12:53:00,
2013-09-14 08:59:00,56.1,54.4,29.32,WSW,248,0.0,0.0,94,0.09,,---,0.21,VWS V14.01,2013-09-14 12:59:00,
2013-09-14 09:05:00,56.5,54.8,29.32,SW,225,1.6,2.0,94,0.09,,---,0.21,VWS V14.01,2013-09-14 13:05:00,
2013-09-14 09:10:00,56.8,55.1,29.32,WNW,292,0.0,0.0,94,0.09,,---,0.21,VWS V14.01,2013-09-14 13:10:00,
2013-09-14 09:16:00,57.2,55.2,29.32,SW,225,0.0,0.0,93,0.09,,---,0.21,VWS V14.01,2013-09-14 13:16:00,
2013-09-14 09:22:00,57.6,55.6,29.32,WNW,292,0.0,0.0,93,0.05,,---,0.21,VWS V14.01,2013-09-14 13:22:00,
2013-09-14 09:28:00,57.9,55.9,29.32,SW,225,0.9,1.1,93,0.05,,---,0.21,VWS V14.01,2013-09-14 13:28:00,
2013-09-14 09:34:00,58.1,56.1,29.32,WSW,248,0.0,0.0,93,0.05,,---,0.21,VWS V14.01,2013-09-14 13:34:00,
2013-09-14 09:39:00,58.3,56.0,29.32,SW,225,0.0,0.0,92,0.05,,---,0.21,VWS V14.01,2013-09-14 13:39:00,
2013-09-14 09:45:00,58.6,56.0,29.32,WSW,248,0.0,0.0,91,0.00,,---,0.21,VWS V14.01,2013-09-14 13:45:00,
2013-09-14 09:51:00,58.8,55.9,29.32,SSW,202,0.0,0.0,90,0.00,,---,0.21,VWS V14.01,2013-09-14 13:51:00,
2013-09-14 09:56:00,59.0,55.1,29.32,WNW,292,0.0,2.7,87,0.00,,---,0.21,VWS V14.01,2013-09-14 13:56:00,
2013-09-14 10:01:00,59.2,55.6,29.32,East,90,0.0,0.0,88,0.00,,---,0.21,VWS V14.01,2013-09-14 14:01:00,
2013-09-14 10:07:00,59.4,55.5,29.32,West,270,1.6,2.5,87,0.00,,---,0.21,VWS V14.01,2013-09-14 14:07:00,
2013-09-14 10:13:00,59.7,54.9,29.32,SW,225,1.1,2.0,84,0.00,,---,0.21,VWS V14.01,2013-09-14 14:13:00,
2013-09-14 10:18:00,59.7,54.6,29.32,West,270,1.1,2.2,83,0.00,,---,0.21,VWS V14.01,2013-09-14 14:18:00,
2013-09-14 10:23:00,59.9,54.1,29.32,South,180,2.0,2.0,81,0.00,,---,0.21,VWS V14.01,2013-09-14 14:23:00,
2013-09-14 10:29:00,60.3,54.4,29.32,SE,135,2.7,2.7,81,0.00,,---,0.21,VWS V14.01,2013-09-14 14:29:00,
2013-09-14 10:34:00,60.4,54.2,29.32,WNW,292,1.6,2.2,80,0.00,,---,0.21,VWS V14.01,2013-09-14 14:34:00,
2013-09-14 10:40:00,60.8,55.3,29.32,WSW,248,0.9,0.9,82,0.00,,---,0.21,VWS V14.01,2013-09-14 14:40:00,
2013-09-14 10:45:00,61.0,55.1,29.32,South,180,1.3,3.1,81,0.00,,---,0.21,VWS V14.01,2013-09-14 14:45:00,
2013-09-14 10:51:00,61.5,55.3,29.32,SE,135,1.6,2.0,80,0.00,,---,0.21,VWS V14.01,2013-09-14 14:51:00,
2013-09-14 10:56:00,61.9,55.7,29.32,SSE,158,2.9,3.8,80,0.00,,---,0.21,VWS V14.01,2013-09-14 14:56:00,
2013-09-14 11:01:00,61.7,53.7,29.32,SSW,202,1.3,2.0,75,0.00,,---,0.21,VWS V14.01,2013-09-14 15:01:00,
2013-09-14 11:06:00,61.5,53.9,29.32,North,0,2.5,2.5,76,0.00,,---,0.21,VWS V14.01,2013-09-14 15:06:00,
2013-09-14 11:12:00,61.9,53.1,29.32,East,90,3.8,3.8,73,0.00,,---,0.21,VWS V14.01,2013-09-14 15:12:00,
2013-09-14 11:18:00,62.1,52.6,29.32,West,270,2.5,3.4,71,0.00,,---,0.21,VWS V14.01,2013-09-14 15:18:00,
2013-09-14 11:23:00,62.2,52.3,29.32,ENE,68,1.6,2.0,70,0.00,,---,0.21,VWS V14.01,2013-09-14 15:23:00,
2013-09-14 11:29:00,62.4,52.5,29.32,WNW,292,1.1,2.0,70,0.00,,---,0.21,VWS V14.01,2013-09-14 15:29:00,
2013-09-14 11:34:00,62.6,53.1,29.32,ENE,68,2.0,2.5,71,0.00,,---,0.21,VWS V14.01,2013-09-14 15:34:00,
2013-09-14 11:40:00,63.0,52.2,29.32,NNW,338,2.7,2.7,68,0.00,,---,0.21,VWS V14.01,2013-09-14 15:40:00,
2013-09-14 11:46:00,63.0,50.6,29.32,West,270,2.9,4.3,64,0.00,,---,0.21,VWS V14.01,2013-09-14 15:46:00,
2013-09-14 11:51:00,63.0,51.0,29.32,SE,135,2.5,4.3,65,0.00,,---,0.21,VWS V14.01,2013-09-14 15:51:00,
2013-09-14 11:57:00,63.1,50.8,29.32,WSW,248,4.0,4.0,64,0.00,,---,0.21,VWS V14.01,2013-09-14 15:57:00,
2013-09-14 12:02:00,63.1,49.9,29.32,SSE,158,2.7,4.3,62,0.00,,---,0.21,VWS V14.01,2013-09-14 16:02:00,
2013-09-14 12:08:00,63.3,50.1,29.32,SSE,158,1.6,3.8,62,0.00,,---,0.21,VWS V14.01,2013-09-14 16:08:00,
2013-09-14 12:14:00,63.5,48.0,29.32,NW,315,1.6,2.7,57,0.00,,---,0.21,VWS V14.01,2013-09-14 16:14:00,
2013-09-14 12:19:00,63.7,50.0,29.32,NE,45,1.6,2.5,61,0.00,,---,0.21,VWS V14.01,2013-09-14 16:19:00,
2013-09-14 12:25:00,63.9,45.9,29.32,WSW,248,2.9,3.8,52,0.00,,---,0.21,VWS V14.01,2013-09-14 16:25:00,
2013-09-14 12:31:00,64.4,49.3,29.32,SW,225,2.9,2.9,58,0.00,,---,0.21,VWS V14.01,2013-09-14 16:31:00,
2013-09-14 12:37:00,64.0,46.6,29.32,SE,135,3.1,3.8,53,0.00,,---,0.21,VWS V14.01,2013-09-14 16:37:00,
2013-09-14 12:43:00,63.9,47.9,29.32,NNE,22,2.7,6.5,56,0.00,,---,0.21,VWS V14.01,2013-09-14 16:43:00,
2013-09-14 12:49:00,64.2,47.7,29.32,NE,45,2.0,6.5,55,0.00,,---,0.21,VWS V14.01,2013-09-14 16:49:00,
2013-09-14 12:54:00,64.9,47.9,29.32,East,90,2.7,3.8,54,0.00,,---,0.21,VWS V14.01,2013-09-14 16:54:00,
2013-09-14 12:59:00,65.5,49.4,29.32,WSW,248,1.3,2.9,56,0.00,,---,0.21,VWS V14.01,2013-09-14 16:59:00,
2013-09-14 13:04:00,65.5,48.4,29.32,WSW,248,1.6,1.6,54,0.00,,---,0.21,VWS V14.01,2013-09-14 17:04:00,
2013-09-14 13:10:00,65.5,46.9,29.32,South,180,6.5,6.5,51,0.00,,---,0.21,VWS V14.01,2013-09-14 17:10:00,
2013-09-14 13:17:00,65.5,45.8,29.32,NNW,338,5.6,6.0,49,0.00,,---,0.21,VWS V14.01,2013-09-14 17:17:00,
2013-09-14 13:24:00,65.3,47.8,29.32,South,180,3.4,3.4,53,0.00,,---,0.21,VWS V14.01,2013-09-14 17:24:00,
2013-09-14 13:29:00,64.8,45.7,29.32,NNE,22,2.2,5.6,50,0.00,,---,0.21,VWS V14.01,2013-09-14 17:29:00,
2013-09-14 13:35:00,64.2,46.2,29.32,WSW,248,2.7,5.4,52,0.00,,---,0.21,VWS V14.01,2013-09-14 17:35:00,
2013-09-14 13:40:00,63.9,45.9,29.32,NW,315,1.6,3.4,52,0.00,,---,0.21,VWS V14.01,2013-09-14 17:40:00,
2013-09-14 13:46:00,63.5,46.1,29.32,WSW,248,2.5,4.3,53,0.00,,---,0.21,VWS V14.01,2013-09-14 17:46:00,
2013-09-14 13:53:00,63.3,45.4,29.32,SW,225,3.6,3.6,52,0.00,,---,0.21,VWS V14.01,2013-09-14 17:53:00,
2013-09-14 13:59:00,63.9,46.4,29.32,WNW,292,2.0,6.5,53,0.00,,---,0.21,VWS V14.01,2013-09-14 17:59:00,
2013-09-14 14:04:00,64.4,45.4,29.32,ESE,112,2.9,4.7,50,0.00,,---,0.21,VWS V14.01,2013-09-14 18:04:00,
2013-09-14 14:10:00,64.4,46.4,29.32,SW,225,1.3,3.1,52,0.00,,---,0.21,VWS V14.01,2013-09-14 18:10:00,
2013-09-14 14:15:00,63.9,45.9,29.32,NNE,22,1.3,3.6,52,0.00,,---,0.21,VWS V14.01,2013-09-14 18:15:00,
2013-09-14 14:21:00,64.2,46.2,29.32,WNW,292,2.9,5.6,52,0.00,,---,0.21,VWS V14.01,2013-09-14 18:21:00,
2013-09-14 14:27:00,64.6,47.1,29.32,SSW,202,2.5,3.6,53,0.00,,---,0.21,VWS V14.01,2013-09-14 18:27:00,
2013-09-14 14:32:00,64.9,46.9,29.32,NW,315,4.0,4.0,52,0.00,,---,0.21,VWS V14.01,2013-09-14 18:32:00,
2013-09-14 14:38:00,65.5,46.9,29.32,NNE,22,2.0,3.1,51,0.00,,---,0.21,VWS V14.01,2013-09-14 18:38:00,
2013-09-14 14:43:00,65.1,46.0,29.32,ESE,112,2.5,7.6,50,0.00,,---,0.21,VWS V14.01,2013-09-14 18:43:00,
2013-09-14 14:48:00,64.4,45.4,29.32,NNW,338,2.5,2.5,50,0.00,,---,0.21,VWS V14.01,2013-09-14 18:48:00,
2013-09-14 14:53:00,64.0,45.6,29.32,ESE,112,0.9,3.1,51,0.00,,---,0.21,VWS V14.01,2013-09-14 18:53:00,
2013-09-14 14:59:00,63.7,46.2,29.32,West,270,2.9,2.9,53,0.00,,---,0.21,VWS V14.01,2013-09-14 18:59:00,
2013-09-14 15:05:00,63.5,46.6,29.35,NNE,22,1.1,2.0,54,0.00,,---,0.21,VWS V14.01,2013-09-14 19:05:00,
2013-09-14 15:10:00,63.3,46.9,29.35,East,90,0.0,2.5,55,0.00,,---,0.21,VWS V14.01,2013-09-14 19:10:00,
2013-09-14 15:15:00,63.3,47.4,29.35,East,90,0.9,1.6,56,0.00,,---,0.21,VWS V14.01,2013-09-14 19:15:00,
2013-09-14 15:21:00,63.1,47.2,29.35,SSE,158,1.3,4.3,56,0.00,,---,0.21,VWS V14.01,2013-09-14 19:21:00,
2013-09-14 15:27:00,63.1,46.2,29.35,SSE,158,2.9,2.9,54,0.00,,---,0.21,VWS V14.01,2013-09-14 19:27:00,
2013-09-14 15:33:00,63.5,47.5,29.35,SE,135,3.6,3.8,56,0.00,,---,0.21,VWS V14.01,2013-09-14 19:33:00,
2013-09-14 15:38:00,63.1,46.2,29.35,SE,135,1.1,3.4,54,0.00,,---,0.21,VWS V14.01,2013-09-14 19:38:00,
2013-09-14 15:43:00,63.5,47.1,29.35,NNW,338,2.9,4.0,55,0.00,,---,0.21,VWS V14.01,2013-09-14 19:43:00,
2013-09-14 15:48:00,63.5,47.1,29.35,West,270,4.7,4.7,55,0.00,,---,0.21,VWS V14.01,2013-09-14 19:48:00,
2013-09-14 15:54:00,63.1,46.2,29.35,SW,225,5.4,5.4,54,0.00,,---,0.21,VWS V14.01,2013-09-14 19:54:00,
2013-09-14 15:59:00,63.1,46.2,29.35,WNW,292,5.8,8.7,54,0.00,,---,0.21,VWS V14.01,2013-09-14 19:59:00,
2013-09-14 16:05:00,63.7,46.2,29.35,NE,45,5.4,5.4,53,0.00,,---,0.21,VWS V14.01,2013-09-14 20:05:00,
2013-09-14 16:10:00,64.2,46.8,29.35,SW,225,3.1,3.4,53,0.00,,---,0.21,VWS V14.01,2013-09-14 20:10:00,
2013-09-14 16:16:00,63.9,45.9,29.35,SSW,202,2.0,4.0,52,0.00,,---,0.21,VWS V14.01,2013-09-14 20:16:00,
2013-09-14 16:21:00,63.1,44.7,29.35,SSW,202,0.0,3.1,51,0.00,,---,0.21,VWS V14.01,2013-09-14 20:21:00,
2013-09-14 16:27:00,62.8,44.4,29.35,NNW,338,2.0,5.8,51,0.00,,---,0.21,VWS V14.01,2013-09-14 20:27:00,
2013-09-14 16:32:00,63.1,45.8,29.35,ESE,112,1.6,1.6,53,0.00,,---,0.21,VWS V14.01,2013-09-14 20:32:00,
2013-09-14 16:38:00,63.0,45.1,29.38,South,180,3.8,3.8,52,0.00,,---,0.21,VWS V14.01,2013-09-14 20:38:00,
2013-09-14 16:44:00,62.6,44.8,29.38,SE,135,2.7,2.7,52,0.00,,---,0.21,VWS V14.01,2013-09-14 20:44:00,
2013-09-14 16:50:00,62.4,45.1,29.38,WSW,248,2.9,2.9,53,0.00,,---,0.21,VWS V14.01,2013-09-14 20:50:00,
2013-09-14 16:55:00,62.1,43.7,29.38,ESE,112,3.8,4.3,51,0.00,,---,0.21,VWS V14.01,2013-09-14 20:55:00,
2013-09-14 17:00:00,62.1,43.7,29.38,WSW,248,4.9,7.6,51,0.00,,---,0.21,VWS V14.01,2013-09-14 21:00:00,
2013-09-14 17:06:00,62.1,44.2,29.38,SSW,202,0.0,2.0,52,0.00,,---,0.21,VWS V14.01,2013-09-14 21:06:00,
2013-09-14 17:12:00,61.7,44.9,29.38,NNW,338,2.2,2.2,54,0.00,,---,0.21,VWS V14.01,2013-09-14 21:12:00,
2013-09-14 17:17:00,61.3,44.6,29.38,ENE,68,2.7,3.1,54,0.00,,---,0.21,VWS V14.01,2013-09-14 21:17:00,
2013-09-14 17:23:00,61.2,44.9,29.38,WSW,248,4.0,4.0,55,0.00,,---,0.21,VWS V14.01,2013-09-14 21:23:00,
2013-09-14 17:29:00,61.0,44.7,29.38,WSW,248,4.3,4.3,55,0.00,,---,0.21,VWS V14.01,2013-09-14 21:29:00,
2013-09-14 17:34:00,60.8,44.5,29.41,NNW,338,1.3,2.2,55,0.00,,---,0.21,VWS V14.01,2013-09-14 21:34:00,
2013-09-14 17:39:00,60.6,45.3,29.41,SW,225,3.6,3.6,57,0.00,,---,0.21,VWS V14.01,2013-09-14 21:39:00,
2013-09-14 17:44:00,60.4,45.2,29.41,West,270,2.7,2.7,57,0.00,,---,0.21,VWS V14.01,2013-09-14 21:44:00,
2013-09-14 17:50:00,60.3,45.0,29.38,West,270,3.1,3.1,57,0.00,,---,0.21,VWS V14.01,2013-09-14 21:50:00,
2013-09-14 17:57:00,59.9,45.1,29.38,NW,315,2.5,2.5,58,0.00,,---,0.21,VWS V14.01,2013-09-14 21:57:00,
2013-09-14 18:02:00,59.7,44.9,29.38,WNW,292,1.1,1.3,58,0.00,,---,0.21,VWS V14.01,2013-09-14 22:02:00,
2013-09-14 18:08:00,59.5,45.2,29.41,SW,225,2.9,3.6,59,0.00,,---,0.21,VWS V14.01,2013-09-14 22:08:00,
2013-09-14 18:13:00,59.2,44.9,29.41,West,270,3.1,4.7,59,0.00,,---,0.21,VWS V14.01,2013-09-14 22:13:00,
2013-09-14 18:19:00,59.0,45.2,29.41,NNW,338,3.4,3.4,60,0.00,,---,0.21,VWS V14.01,2013-09-14 22:19:00,
2013-09-14 18:25:00,58.8,45.4,29.41,SSW,202,2.7,2.7,61,0.00,,---,0.21,VWS V14.01,2013-09-14 22:25:00,
2013-09-14 18:31:00,58.5,45.5,29.41,ESE,112,0.0,5.8,62,0.00,,---,0.21,VWS V14.01,2013-09-14 22:31:00,
2013-09-14 18:37:00,58.1,45.2,29.41,WSW,248,4.9,4.9,62,0.00,,---,0.21,VWS V14.01,2013-09-14 22:37:00,
2013-09-14 18:43:00,57.9,45.4,29.41,WNW,292,2.2,2.2,63,0.00,,---,0.21,VWS V14.01,2013-09-14 22:43:00,
2013-09-14 18:48:00,57.6,45.1,29.41,NE,45,0.0,0.0,63,0.00,,---,0.21,VWS V14.01,2013-09-14 22:48:00,
2013-09-14 18:49:00,57.6,45.5,29.41,WSW,248,2.5,2.5,64,0.00,,---,0.21,VWS V14.01,2013-09-14 22:49:00,
2013-09-14 18:54:00,57.4,45.7,29.41,South,180,0.0,2.5,65,0.00,,---,0.21,VWS V14.01,2013-09-14 22:54:00,
2013-09-14 18:59:00,57.2,45.6,29.41,SSE,158,1.1,2.7,65,0.00,,---,0.21,VWS V14.01,2013-09-14 22:59:00,
2013-09-14 19:05:00,57.0,45.8,29.41,SSW,202,1.3,1.6,66,0.00,,---,0.21,VWS V14.01,2013-09-14 23:05:00,
2013-09-14 19:11:00,56.8,46.0,29.41,WSW,248,3.6,3.6,67,0.00,,---,0.21,VWS V14.01,2013-09-14 23:11:00,
2013-09-14 19:16:00,56.7,45.8,29.41,SSW,202,1.6,2.7,67,0.00,,---,0.21,VWS V14.01,2013-09-14 23:16:00,
2013-09-14 19:22:00,56.7,45.8,29.41,SW,225,0.9,2.9,67,0.00,,---,0.21,VWS V14.01,2013-09-14 23:22:00,
2013-09-14 19:28:00,56.3,45.5,29.41,SW,225,0.0,2.2,67,0.00,,---,0.21,VWS V14.01,2013-09-14 23:28:00,
2013-09-14 19:33:00,56.1,45.7,29.41,SSW,202,1.3,2.2,68,0.00,,---,0.21,VWS V14.01,2013-09-14 23:33:00,
2013-09-14 19:39:00,55.8,45.4,29.44,NNE,22,1.1,2.5,68,0.00,,---,0.21,VWS V14.01,2013-09-14 23:39:00,
2013-09-14 19:44:00,55.6,45.2,29.44,WNW,292,0.0,0.0,68,0.00,,---,0.21,VWS V14.01,2013-09-14 23:44:00,
2013-09-14 19:50:00,55.2,45.2,29.44,ESE,112,0.0,1.3,69,0.00,,---,0.21,VWS V14.01,2013-09-14 23:50:00,
2013-09-14 19:55:00,55.0,45.5,29.44,SW,225,0.0,0.0,70,0.00,,---,0.21,VWS V14.01,2013-09-14 23:55:00,
2013-09-14 20:01:00,54.9,45.3,29.44,SSW,202,2.5,2.5,70,0.00,,---,0.21,VWS V14.01,2013-09-15 00:01:00,
2013-09-14 20:07:00,54.7,45.5,29.44,SSW,202,1.6,1.6,71,0.00,,---,0.21,VWS V14.01,2013-09-15 00:07:00,
2013-09-14 20:13:00,54.3,45.5,29.44,SW,225,2.5,2.5,72,0.00,,---,0.21,VWS V14.01,2013-09-15 00:13:00,
2013-09-14 20:18:00,54.0,45.2,29.44,WSW,248,2.5,2.5,72,0.00,,---,0.21,VWS V14.01,2013-09-15 00:18:00,
2013-09-14 20:23:00,53.4,45.3,29.44,WSW,248,0.0,0.0,74,0.00,,---,0.21,VWS V14.01,2013-09-15 00:23:00,
2013-09-14 20:29:00,53.1,45.4,29.44,WSW,248,1.1,2.0,75,0.00,,---,0.21,VWS V14.01,2013-09-15 00:29:00,
2013-09-14 20:35:00,52.7,45.4,29.47,SSW,202,1.1,2.5,76,0.00,,---,0.21,VWS V14.01,2013-09-15 00:35:00,
2013-09-14 20:40:00,52.5,45.2,29.47,SW,225,2.0,2.5,76,0.00,,---,0.21,VWS V14.01,2013-09-15 00:40:00,
2013-09-14 20:46:00,52.0,44.7,29.47,SW,225,0.0,0.0,76,0.00,,---,0.21,VWS V14.01,2013-09-15 00:46:00,
2013-09-14 20:52:00,51.8,44.8,29.47,SW,225,0.0,0.0,77,0.00,,---,0.21,VWS V14.01,2013-09-15 00:52:00,
2013-09-14 20:57:00,51.6,45.3,29.47,SW,225,0.0,0.0,79,0.00,,---,0.21,VWS V14.01,2013-09-15 00:57:00,
2013-09-14 21:02:00,51.6,45.7,29.47,SW,225,0.0,0.0,80,0.00,,---,0.21,VWS V14.01,2013-09-15 01:02:00,
2013-09-14 21:07:00,51.4,45.5,29.47,SW,225,0.0,0.0,80,0.00,,---,0.21,VWS V14.01,2013-09-15 01:07:00,
2013-09-14 21:13:00,51.3,45.6,29.47,SW,225,0.0,0.0,81,0.00,,---,0.21,VWS V14.01,2013-09-15 01:13:00,
2013-09-14 21:18:00,50.9,45.3,29.47,SW,225,0.0,0.0,81,0.00,,---,0.21,VWS V14.01,2013-09-15 01:18:00,
2013-09-14 21:24:00,50.7,45.1,29.47,SW,225,0.0,0.0,81,0.00,,---,0.21,VWS V14.01,2013-09-15 01:24:00,
2013-09-14 21:29:00,50.5,45.3,29.47,SW,225,0.0,0.0,82,0.00,,---,0.21,VWS V14.01,2013-09-15 01:29:00,
2013-09-14 21:35:00,50.2,44.9,29.47,SW,225,0.0,0.0,82,0.00,,---,0.21,VWS V14.01,2013-09-15 01:35:00,
2013-09-14 21:41:00,50.2,45.2,29.47,SW,225,0.0,0.0,83,0.00,,---,0.21,VWS V14.01,2013-09-15 01:41:00,
2013-09-14 21:46:00,50.0,44.7,29.47,ENE,68,0.0,0.0,82,0.00,,---,0.21,VWS V14.01,2013-09-15 01:46:00,
2013-09-14 21:52:00,49.8,44.9,29.47,ENE,68,0.0,0.0,83,0.00,,---,0.21,VWS V14.01,2013-09-15 01:52:00,
2013-09-14 21:58:00,49.6,45.0,29.47,ENE,68,0.0,0.0,84,0.00,,---,0.21,VWS V14.01,2013-09-15 01:58:00,
2013-09-14 22:03:00,49.5,44.8,29.47,ENE,68,0.0,0.0,84,0.00,,---,0.21,VWS V14.01,2013-09-15 02:03:00,
2013-09-14 22:09:00,49.3,44.7,29.47,SSW,202,0.0,0.0,84,0.00,,---,0.21,VWS V14.01,2013-09-15 02:09:00,
2013-09-14 22:14:00,49.1,44.8,29.47,SSW,202,0.0,0.0,85,0.00,,---,0.21,VWS V14.01,2013-09-15 02:14:00,
2013-09-14 22:20:00,48.9,44.3,29.47,SSW,202,0.0,0.0,84,0.00,,---,0.21,VWS V14.01,2013-09-15 02:20:00,
2013-09-14 22:26:00,48.7,44.1,29.47,SSW,202,0.0,0.0,84,0.00,,---,0.21,VWS V14.01,2013-09-15 02:26:00,
2013-09-14 22:31:00,48.7,44.4,29.47,SSW,202,0.0,0.0,85,0.00,,---,0.21,VWS V14.01,2013-09-15 02:31:00,
2013-09-14 22:37:00,48.6,44.3,29.47,SSW,202,0.0,0.0,85,0.00,,---,0.21,VWS V14.01,2013-09-15 02:37:00,
2013-09-14 22:42:00,48.6,44.3,29.47,SSW,202,0.0,0.0,85,0.00,,---,0.21,VWS V14.01,2013-09-15 02:42:00,
2013-09-14 22:47:00,48.4,44.1,29.47,SSW,202,0.0,0.0,85,0.00,,---,0.21,VWS V14.01,2013-09-15 02:47:00,
2013-09-14 22:52:00,48.2,43.9,29.47,SSW,202,0.0,0.0,85,0.00,,---,0.21,VWS V14.01,2013-09-15 02:52:00,
2013-09-14 22:58:00,48.2,43.9,29.47,SSW,202,0.0,0.0,85,0.00,,---,0.21,VWS V14.01,2013-09-15 02:58:00,
2013-09-14 23:03:00,48.0,44.0,29.47,SSW,202,0.0,0.0,86,0.00,,---,0.21,VWS V14.01,2013-09-15 03:03:00,
2013-09-14 23:08:00,47.8,43.9,29.50,SSW,202,0.0,0.0,86,0.00,,---,0.21,VWS V14.01,2013-09-15 03:08:00,
2013-09-14 23:13:00,47.7,43.7,29.50,SSW,202,0.0,0.0,86,0.00,,---,0.21,VWS V14.01,2013-09-15 03:13:00,
2013-09-14 23:19:00,47.7,43.7,29.50,SSW,202,0.0,0.0,86,0.00,,---,0.21,VWS V14.01,2013-09-15 03:19:00,
2013-09-14 23:24:00,47.5,43.8,29.50,SSW,202,0.0,0.0,87,0.00,,---,0.21,VWS V14.01,2013-09-15 03:24:00,
2013-09-14 23:30:00,47.3,43.6,29.50,SSW,202,0.0,0.0,87,0.00,,---,0.21,VWS V14.01,2013-09-15 03:30:00,
2013-09-14 23:35:00,47.3,43.6,29.50,SSW,202,0.0,0.0,87,0.00,,---,0.21,VWS V14.01,2013-09-15 03:35:00,
2013-09-14 23:41:00,47.3,43.6,29.50,SSW,202,0.0,0.0,87,0.00,,---,0.21,VWS V14.01,2013-09-15 03:41:00,
2013-09-14 23:47:00,47.1,43.5,29.50,SSW,202,0.0,0.0,87,0.00,,---,0.21,VWS V14.01,2013-09-15 03:47:00,
2013-09-14 23:52:00,47.1,43.5,29.50,SSW,202,0.0,0.0,87,0.00,,---,0.21,VWS V14.01,2013-09-15 03:52:00,
2013-09-14 23:58:00,47.1,43.8,29.50,SSW,202,0.0,0.0,88,0.00,,---,0.21,VWS V14.01,2013-09-15 03:58:00,